Back to catalog

COSMOS 2391

AliveMilitaryPO
NORAD 27465·PAYLOAD·🇷🇺 Russia

Launched Jul 8, 2002 from Plesetsk Cosmodrome

Loading…

Next Passes (next 24 hours)

TLE

FreshSource: Space-Track

Epoch: Sep 14, 2026, 14:00 UTC

1 27465U 02036B   26257.58399178  .00000048  00000-0  26927-3 0  9998
2 27465  82.4801 285.5537 0027378  58.4377 301.9372 12.44948207 98974

Track COSMOS 2391 in real time with AllMySat

Download on the App Store